FW4080 Weather Reports


time (UTC)temp
F
wind
direction
speed
knots
gust
knots
rain 1hr
in
rain 24hr
in
rain mn
in
humidity
%
barometer
mb
20260506234555 54 281 0.0 2.6 0.00 0.02 0.01 55 1013.7
20260506233051 54 328 0.0 1.7 0.00 0.02 0.01 55 1013.4
20260506231553 55 276 0.0 2.6 0.00 0.02 0.01 56 1013.7
20260506230045 55 264 0.0 0.9 0.00 0.02 0.01 56 1013.9
20260506224545 55 76 0.0 1.7 0.00 0.02 0.01 56 1013.9
20260506223045 55 77 0.0 3.5 0.00 0.02 0.01 55 1014.0
20260506221545 56 254 0.0 2.6 0.00 0.02 0.01 54 1014.1
20260506220041 56 333 0.0 4.3 0.00 0.02 0.01 52 1013.5
20260506214542 56 352 0.9 3.5 0.00 0.14 0.01 51 1013.4
20260506213040 56 104 0.0 3.5 0.00 0.14 0.01 54 1013.2
20260506211538 56 218 0.0 2.6 0.00 0.14 0.01 55 1013.2
20260506210037 56 72 0.0 1.7 0.00 0.14 0.01 55 1013.1
20260506204540 56 47 0.0 1.7 0.00 0.14 0.01 55 1013.1
20260506203040 57 15 0.9 4.3 0.00 0.14 0.01 53 1013.0
20260506201539 57 228 0.0 2.6 0.00 0.14 0.01 54 1012.8
20260506200039 57 316 0.0 4.3 0.00 0.14 0.01 54 1012.9
20260506194534 57 354 0.9 4.3 0.00 0.14 0.01 55 1012.7
20260506193033 57 195 1.7 5.2 0.00 0.14 0.01 54 1012.8
20260506191532 59 56 0.9 2.6 0.00 0.14 0.01 53 1012.8
20260506190038 59 342 0.9 6.1 0.00 0.14 0.01 51 1012.7
20260506184538 60 132 0.0 5.2 0.00 0.14 0.01 54 1012.6
20260506183032 59 338 0.9 6.1 0.00 0.14 0.01 51 1012.7
20260506181530 59 23 0.0 5.2 0.00 0.14 0.01 50 1012.9
20260506180030 59 357 0.0 3.5 0.00 0.14 0.01 55 1012.8
20260506174529 59 202 0.0 3.5 0.00 0.14 0.01 54 1012.8
20260506173032 59 342 0.9 4.3 0.00 0.14 0.01 55 1012.9
20260506171528 59 29 0.9 3.5 0.00 0.14 0.01 58 1012.8
20260506170025 59 146 0.0 3.5 0.00 0.14 0.01 56 1012.9
20260506164525 59 334 0.0 2.6 0.00 0.14 0.01 59 1012.9
20260506163030 57 290 0.0 5.2 0.00 0.14 0.01 62 1013.2
20260506161519 58 333 0.0 3.5 0.00 0.14 0.01 59 1013.2
20260506160017 56 212 0.0 3.5 0.00 0.14 0.01 61 1012.8
20260506154513 56 357 0.0 1.7 0.00 0.14 0.01 65 1012.6
20260506153009 54 156 0.0 1.7 0.00 0.14 0.01 71 1012.6
20260506151504 53 36 0.0 3.5 0.00 0.14 0.01 75 1012.5
20260506144556 50 205 0.0 2.6 0.00 0.14 0.01 88 1012.2
20260506143053 49 13 0.0 3.5 0.00 0.14 0.01 97 1012.3
20260506141551 48 15 0.9 4.3 0.00 0.14 0.01 98 1011.9
20260506140049 46 23 0.9 3.5 0.00 0.14 0.01 98 1011.5
20260506134549 45 115 0.0 4.3 0.00 0.14 0.01 98 1011.7
20260506133046 45 300 0.0 2.6 0.00 0.14 0.01 98 1011.3
20260506131551 44 333 0.0 2.6 0.00 0.14 0.01 98 1011.1
20260506130059 45 328 0.0 2.6 0.00 0.14 0.01 98 1011.3
20260506124550 45 236 0.0 1.7 0.00 0.14 0.01 98 1011.2
20260506123041 45 349 0.0 2.6 0.00 0.14 0.01 98 1010.6
20260506121537 45 257 0.0 0.9 0.00 0.14 0.01 98 1010.2
20260506120036 45 278 0.0 0.9 0.00 0.14 0.01 98 1010.1
20260506114538 45 345 0.0 0.9 0.00 0.14 0.01 98 1010.1
20260506113040 45 224 0.0 2.6 0.00 0.14 0.01 98 1010.3
20260506111530 45 5 0.0 1.7 0.00 0.14 0.01 98 1009.2
20260506110030 45 113 0.0 2.6 0.00 0.14 0.01 98 1008.9
20260506104529 45 262 0.0 1.7 0.00 0.14 0.01 98 1008.9
20260506103033 45 283 0.0 3.5 0.00 0.14 0.01 98 1009.2
20260506101539 45 318 0.0 1.7 0.00 0.14 0.01 98 1008.9
20260506100020 45 319 0.0 0.9 0.00 0.14 0.01 98 1008.0
20260506094524 45 259 0.0 1.7 0.00 0.14 0.01 98 1008.2
20260506093022 45 337 0.0 2.6 0.01 0.14 0.01 98 1007.7
20260506091517 45 131 0.0 2.6 0.01 0.14 0.01 98 1008.3
20260506090015 45 222 0.0 1.7 0.01 0.14 0.01 98 1007.8
20260506084514 45 332 0.9 3.5 0.01 0.14 0.01 98 1008.1
20260506083014 45 278 0.0 2.6 0.00 0.13 0.00 98 1008.2
20260506081511 45 85 0.0 4.3 0.00 0.13 0.00 98 1007.9
20260506073013 45 160 0.0 4.3 0.00 0.13 0.00 98 1007.4
20260506071505 45 338 0.0 3.5 0.00 0.13 0.00 98 1007.6
20260506061556 47 290 0.0 1.7 0.00 0.13 0.00 98 1007.6
20260506044638 49 221 0.0 1.7 0.00 0.13 0.00 98 1007.9
20260506043046 49 117 0.0 0.9 0.00 0.13 0.00 98 1007.8
20260506041556 49 358 0.0 2.6 0.00 0.13 0.00 98 1007.9
20260506040041 49 110 0.0 0.9 0.01 0.13 0.00 98 1008.1
20260506034605 49 165 0.0 0.9 0.01 0.13 0.13 98 1008.2
20260506033039 50 322 0.0 3.5 0.01 0.13 0.13 98 1008.3
20260506031540 50 352 0.0 3.5 0.01 0.13 0.13 98 1008.6
20260506030031 52 257 0.9 5.2 0.00 0.12 0.12 97 1008.8
20260506024528 55 163 0.9 4.3 0.00 0.12 0.12 97 1008.1
20260506023025 58 23 0.0 0.0 0.00 0.12 0.12 99 1008.2
20260506021524 58 23 0.0 0.0 0.00 0.12 0.12 98 1008.2
20260506020022 58 23 0.0 0.0 0.00 0.12 0.12 98 1008.4
20260506014527 58 23 0.0 0.0 0.00 0.12 0.12 98 1008.3
20260506013021 58 23 0.0 0.9 0.00 0.12 0.12 98 1008.2
20260506011521 58 33 0.0 0.9 0.00 0.12 0.12 98 1007.9
20260506010019 59 311 0.0 1.7 0.00 0.12 0.12 98 1007.7
20260506004513 59 142 0.0 1.7 0.00 0.12 0.12 98 1007.8
20260506003008 59 215 0.0 1.7 0.00 0.12 0.12 98 1007.8
20260506001505 59 335 0.0 0.9 0.00 0.12 0.12 98 1007.8
20260506000004 59 335 0.0 2.6 0.00 0.12 0.12 98 1007.9